Track METEOR 3-2 now! 10-day predictions METEOR 3-2 is classified as:
1 19336U 88064A 21016.85167501 .00000057 00000-0 11637-3 0 9994 2 19336 82.5445 290.7020 0018169 109.0966 313.5158 13.17193812561338